Location: Rowland
(34.5359°N, 79.2929°W)
Time: 18:10:14
(UTC+00:00)

Transit 2A Rocket - Pass Details

Date: 08 October 2022
Orbit: 589 x 911 km, 66.7° (Epoch: 02 December)

Event Time Altitude Azimuth Distance (km) Brightness Sun altitude
Rises 18:56:51 0° 331° (NNW) 3,079 8.0 41.5°
Reaches altitude 10° 18:59:05 10° 331° (NNW) 2,206 7.3 41.2°
Maximum altitude 19:04:08 78° 246° (WSW) 788 6.1 40.5°
Drops below altitude 10° 19:09:40 10° 160° (SSE) 2,411 8.0 39.8°
Sets 19:12:13 0° 159° (SSE) 3,386 8.6 39.4°
